EST,Max TemperatureF,Mean TemperatureF,Min TemperatureF,Max Dew PointF,MeanDew PointF,Min DewpointF,Max Humidity, Mean Humidity, Min Humidity, Max Sea Level PressureIn, Mean Sea Level PressureIn, Min Sea Level PressureIn, Max VisibilityMiles, Mean VisibilityMiles, Min VisibilityMiles, Max Wind SpeedMPH, Mean Wind SpeedMPH, Max Gust SpeedMPH,PrecipitationIn, CloudCover, Events, WindDirDegrees
2014-1-1,20,16,11,11,7,2,88,71,54,30.43,30.34,30.27,10,6,1,21,8,26,0.06,7,Snow,2
2014-1-2,14,9,4,9,4,-1,88,82,76,30.29,30.10,29.97,8,2,0,24,15,30,0.30,8,Snow,37
2014-1-3,9,5,0,0,-3,-6,87,75,63,30.43,30.30,30.05,10,8,2,16,8,21,T,5,Snow,304
2014-1-4,36,23,10,16,6,-3,64,48,32,30.29,30.11,29.99,10,10,10,26,16,35,0.00,5,,208
2014-1-5,37,35,32,35,23,15,89,67,44,30.11,29.87,29.40,10,9,2,13,6,16,0.20,8,Rain-Snow,67
2014-1-6,45,24,2,41,13,-4,100,84,67,29.89,29.63,29.24,10,3,0,46,24,60,0.32,8,Rain-Snow,250
2014-1-7,9,2,-5,4,-1,-8,95,84,72,30.30,30.09,29.85,3,0,0,38,23,51,0.48,8,Snow,253
2014-1-8,19,13,6,16,7,1,88,72,56,30.47,30.39,30.24,10,3,0,21,12,25,0.21,8,Fog-Snow,235
2014-1-9,23,15,6,16,9,4,91,74,57,30.66,30.55,30.38,10,10,3,15,4,20,T,4,Snow,201
2014-1-10,42,32,21,37,28,18,92,86,79,30.37,30.22,29.86,10,5,1,12,5,15,0.06,8,Snow,154
2014-1-11,50,42,34,47,40,31,100,90,80,29.80,29.43,29.23,10,7,0,32,15,45,0.53,8,Rain-Snow,211
2014-1-12,34,32,30,32,30,26,92,84,75,29.98,29.77,29.51,10,8,4,28,16,36,T,7,Rain-Snow,236
2014-1-13,51,42,33,43,33,26,92,69,46,29.90,29.75,29.64,10,10,7,25,16,31,0.21,6,Rain,198
2014-1-14,45,36,27,43,33,24,100,82,64,29.82,29.73,29.62,10,5,0,20,9,25,0.06,7,Fog-Rain,220
2014-1-15,36,31,26,31,22,18,89,76,63,30.00,29.88,29.75,10,10,7,31,16,40,T,7,Snow,233
2014-1-16,32,28,24,23,19,15,88,71,53,29.97,29.91,29.82,10,8,2,16,7,23,0.01,7,Snow,206
2014-1-17,36,32,28,27,23,20,92,74,56,29.84,29.79,29.73,10,8,2,26,10,37,0.01,6,Snow,200
2014-1-18,30,24,17,27,16,9,92,80,67,29.94,29.88,29.80,9,3,0,29,17,37,0.11,8,Fog-Snow,234
2014-1-19,29,23,16,23,17,8,88,78,67,29.84,29.62,29.46,10,4,0,40,20,58,0.04,8,Snow,223
2014-1-20,31,21,11,27,15,0,85,72,59,30.05,29.75,29.48,10,6,1,28,12,41,0.07,8,Snow,311
2014-1-21,11,7,3,4,0,-3,86,77,67,30.16,30.10,30.04,10,6,0,15,8,20,0.01,7,Snow,2
2014-1-22,7,5,2,0,-3,-6,87,75,63,30.14,30.08,30.01,10,7,1,13,5,16,T,7,Snow,258
2014-1-23,12,7,1,5,2,-4,87,77,66,30.40,30.21,30.06,10,4,0,15,8,18,0.03,7,Snow,288
2014-1-24,18,10,1,5,1,-8,83,65,47,30.40,30.19,29.68,10,6,1,32,19,46,0.02,7,Snow,230
2014-1-25,24,16,8,20,12,-2,92,74,56,29.65,29.41,29.21,10,2,0,28,17,37,0.30,8,Snow,247
2014-1-26,28,17,5,20,5,-5,81,72,63,29.78,29.62,29.43,10,8,1,22,14,30,T,7,Snow,209
2014-1-27,30,17,3,27,7,-8,85,70,55,30.18,29.73,29.26,10,5,0,33,18,45,0.12,6,Snow,262
2014-1-28,7,4,0,0,-6,-11,79,68,57,30.37,30.28,30.20,10,8,1,28,17,33,T,3,Snow,231
2014-1-29,14,7,0,9,1,-11,84,70,56,30.27,30.13,30.02,10,6,0,33,20,47,T,6,Snow,234
2014-1-30,33,21,9,12,3,-1,69,48,26,30.27,30.12,29.85,10,10,10,24,14,36,0.00,5,,204
2014-1-31,32,30,28,27,22,15,85,66,47,30.19,30.06,29.90,10,9,5,32,14,44,T,8,Snow,235